Weather History for San Angelo, TX

Change the Weather History Date:

Tuesday, June 19, 2012

  Actual Average Record
Temperature  
Mean Temperature 86 °F 81 °F  
Max Temperature 97 °F 93 °F 109 °F (1908)
Min Temperature 75 °F 69 °F 53 °F (1912)
Degree Days  
Heating Degree Days 0 0  
Month to date heating degree days 0 0  
Since 1 June heating degree days 0 0  
Since 1 July heating degree days 1886 2316  
Cooling Degree Days 21 16  
Month to date cooling degree days 381 280  
Year to date cooling degree days 1086 740  
Since 1 June cooling degree days 381 280  
Growing Degree Days 36 (Base 50)    
Moisture  
Dew Point 62 °F    
Average Humidity 50    
Maximum Humidity 69    
Minimum Humidity 30    
Precipitation  
Precipitation 0.00 in 0.08 in 1.75 in (1920)
Month to date precipitation 0.53 1.86  
Year to date precipitation 13.09 9.88  
Sea Level Pressure  
Sea Level Pressure 29.71 in    
Wind  
Wind Speed 15 mph (SSE)    
Max Wind Speed 25 mph    
Max Gust Speed 33 mph    
Visibility 10 miles    
Events      
T = Trace of Precipitation, MM = Missing Value Source: NWS Daily Summary

Daily Weather History Graph

Daily Weather History Graph

Search for Another Location

Airport:

Trip Planner

Search our weather history database for the weather conditions in past years. The results will help you decide how hot, cold, wet, or windy it might be!

Date:

Astronomy

Jun. 19, 2012 Rise Set
Actual Time 6:37 AM CDT 8:49 PM CDT
Civil Twilight 6:09 AM CDT 9:17 PM CDT
Nautical Twilight 5:35 AM CDT 9:51 PM CDT
Astronomical Twilight 4:58 AM CDT 10:28 PM CDT
Moon 6:41 AM CDT (6/19) 8:58 PM CDT (6/19)
Length of Visible Light 15h 07m
Length of Day
14h 11m
New Moon, 0% of the Moon is Illuminated
Jun 19
New Moon
Jun 26
First Quarter
Jul 3
Full
Jul 10
Last Quarter
Jul 18
New

Hourly Weather History & Observations

Time (CDT) Temp. Heat Index Dew Point Humidity Pressure Visibility Wind Dir Wind Speed Gust Speed Precip Events Conditions
12:51 AM 82.0 °F 83.0 °F 62.1 °F 51% 29.69 in 10.0 mi SSE 15.0 mph 23.0 mph N/A   Clear
1:51 AM 80.1 °F 81.2 °F 62.1 °F 54% 29.69 in 10.0 mi SSE 13.8 mph 19.6 mph N/A   Clear
2:51 AM 79.0 °F - 62.1 °F 56% 29.69 in 10.0 mi SSE 11.5 mph 20.7 mph N/A   Clear
3:51 AM 78.1 °F - 63.0 °F 60% 29.69 in 10.0 mi South 12.7 mph 24.2 mph N/A   Clear
4:51 AM 75.9 °F - 64.0 °F 67% 29.70 in 10.0 mi South 9.2 mph - N/A   Clear
5:51 AM 75.2 °F - 64.4 °F 69% 29.79 in 10.0 mi SSE 11.5 mph - N/A   Partly Cloudy
6:51 AM 75.9 °F - 64.9 °F 69% 29.72 in 10.0 mi SSE 15.0 mph - N/A   Clear
7:51 AM 77.0 °F - 64.9 °F 66% 29.73 in 10.0 mi SSE 10.4 mph - N/A   Clear
8:51 AM 79.0 °F - 64.9 °F 62% 29.75 in 10.0 mi South 13.8 mph 26.5 mph N/A   Clear
9:51 AM 82.0 °F 83.8 °F 64.9 °F 56% 29.75 in 10.0 mi South 18.4 mph 26.5 mph N/A   Clear
10:51 AM 84.9 °F 86.1 °F 64.0 °F 49% 29.74 in 10.0 mi South 20.7 mph 28.8 mph N/A   Clear
11:51 AM 89.1 °F 90.3 °F 64.0 °F 43% 29.73 in 10.0 mi South 13.8 mph 28.8 mph N/A   Clear
12:51 PM 91.0 °F 91.9 °F 63.0 °F 39% 29.70 in 10.0 mi South 13.8 mph 31.1 mph N/A   Clear
1:51 PM 93.2 °F 94.1 °F 62.6 °F 36% 29.78 in 10.0 mi SSE 12.7 mph 31.1 mph N/A   Clear
2:51 PM 95.0 °F 96.0 °F 63.0 °F 34% 29.69 in 10.0 mi SSE 16.1 mph 27.6 mph N/A   Partly Cloudy
3:51 PM 96.1 °F 96.4 °F 61.0 °F 31% 29.67 in 10.0 mi SSE 18.4 mph 28.8 mph N/A   Partly Cloudy
4:51 PM 96.1 °F 96.4 °F 61.0 °F 31% 29.66 in 10.0 mi SSE 19.6 mph 32.2 mph N/A   Partly Cloudy
5:51 PM 95.0 °F 94.8 °F 60.1 °F 31% 29.65 in 10.0 mi SSE 15.0 mph 26.5 mph N/A   Clear
6:51 PM 95.0 °F 94.4 °F 59.0 °F 30% 29.64 in 10.0 mi SSE 16.1 mph 26.5 mph N/A   Clear
7:51 PM 93.0 °F 92.0 °F 57.9 °F 31% 29.65 in 10.0 mi SSE 13.8 mph 26.5 mph N/A   Clear
8:51 PM 91.0 °F 90.0 °F 57.9 °F 33% 29.67 in 8.0 mi SE 13.8 mph 20.7 mph N/A   Clear
9:51 PM 88.0 °F 88.4 °F 62.1 °F 42% 29.69 in 10.0 mi SE 13.8 mph 27.6 mph N/A   Clear
10:51 PM 84.2 °F 85.0 °F 62.6 °F 48% 29.81 in 10.0 mi SSE 17.3 mph 27.6 mph N/A   Clear
11:51 PM 82.0 °F 83.4 °F 64.0 °F 54% 29.74 in 10.0 mi SSE 11.5 mph 21.9 mph N/A   Clear